RYR783 EDDH-LGKO

Flight info

Callsign RYR783
Flight time N/A
Altitude 31000
Route RAMAR6G/33 RAMAR Z998 RATMO DCT HDO DCT ODLIV DCT BODAL DCT BEGLA DCT SVR DCT BABIT DCT RIGMU DCT RISTU DCT INRES DCT GINAM DCT IBISI DCT SIN DCT RUGAS UN128 FSK DCT MES UN139 OKORO N139 LURUS L995 KOPAR KOPAR1M
Aircraft B738/M-ICAO/L

Departure

Time 2026-05-06 15:24
Airport Hamburg Helmut Schmidt Airport (EDDH)

Arrival

Time N/A
Airport Kos International Airport "Ippokratis" (LGKO)
Time Latitude Longitude Altitude Speed Heading
2026-05-06 14:44 53.63244 9.99879 30 ft 0 kts 140°
2026-05-06 15:14 53.63254 9.99864 30 ft 2 kts 144°
2026-05-06 15:15 53.63267 9.99853 30 ft 2 kts 160°
2026-05-06 15:15 53.63281 9.99847 30 ft 2 kts 173°
2026-05-06 15:15 53.63296 9.99846 30 ft 2 kts 186°
2026-05-06 15:15 53.63311 9.99851 31 ft 2 kts 200°
2026-05-06 15:16 53.63324 9.99862 31 ft 2 kts 213°
2026-05-06 15:16 53.63336 9.99878 31 ft 2 kts 226°
2026-05-06 15:16 53.63340 9.99887 31 ft 1 kts 232°
2026-05-06 15:16 53.63341 9.99889 31 ft 0 kts 231°
2026-05-06 15:19 53.63341 9.99888 31 ft 0 kts 231°
2026-05-06 15:19 53.63316 9.99839 31 ft 10 kts 229°
2026-05-06 15:19 53.63258 9.99749 29 ft 12 kts 193°
2026-05-06 15:19 53.63174 9.99803 28 ft 14 kts 152°
2026-05-06 15:20 53.63086 9.99878 29 ft 12 kts 153°
2026-05-06 15:20 53.63022 9.99934 32 ft 8 kts 152°
2026-05-06 15:20 53.62969 9.99980 34 ft 8 kts 153°
2026-05-06 15:20 53.62910 9.99960 33 ft 11 kts 237°
2026-05-06 15:21 53.62896 9.99917 33 ft 0 kts 244°
2026-05-06 15:21 53.62895 9.99914 32 ft 1 kts 244°
2026-05-06 15:22 53.62877 9.99850 31 ft 10 kts 242°
2026-05-06 15:22 53.62885 9.99731 30 ft 13 kts 329°
2026-05-06 15:22 53.62921 9.99699 29 ft 0 kts 332°
2026-05-06 15:22 53.62924 9.99697 29 ft 3 kts 332°
2026-05-06 15:23 53.63070 9.99572 30 ft 55 kts 333°
2026-05-06 15:23 53.63440 9.99251 33 ft 103 kts 333°
2026-05-06 15:23 53.64156 9.98636 42 ft 152 kts 333°
2026-05-06 15:23 53.64807 9.98065 85 ft 176 kts 335°
2026-05-06 15:24 53.65274 9.97653 299 ft 179 kts 336°
2026-05-06 15:24 53.66011 9.97041 762 ft 179 kts 339°
2026-05-06 15:24 53.66631 9.96537 1126 ft 182 kts 339°
2026-05-06 15:24 53.67722 9.95615 1606 ft 194 kts 338°
2026-05-06 15:25 53.68499 9.94966 1916 ft 196 kts 342°
2026-05-06 15:25 53.69064 9.94610 2056 ft 198 kts 351°
2026-05-06 15:25 53.70261 9.94452 2371 ft 201 kts
2026-05-06 15:26 53.71120 9.94566 2659 ft 203 kts
2026-05-06 15:26 53.72132 9.94783 2996 ft 205 kts 15°
2026-05-06 15:26 53.73322 9.95499 3429 ft 203 kts 34°
2026-05-06 15:26 53.74000 9.96494 3659 ft 207 kts 52°
2026-05-06 15:27 53.74582 9.98184 3875 ft 216 kts 65°